THORAD AGENA D DEB, 6766

Orbit data source: Space-Track

THORAD AGENA D DEB, 6766 is space debris in SSO originally from a launch on Wed, 08 Apr 1970 UTC launched from the Air Force Western Test Range (AFWTR). Debris objects in space refer to the collection of defunct objects orbiting the Earth. Examples of debris include non-operational satellites, rocket bodies, and fragments generated from explosions, collisions, or faulty payload assembly.

Loading next visibility...
Identifier
6766, 1970-025NH
Orbit
SSO
Country
Flag of USUS
Related business
Manufacturer
Unknown
Mission
Spacecraft
Bus & Motor
Unknown
Mass
Unknown
Launch date (UTC)
1970-04-08 (56 years ago)
Launch vehicle
Unknown
Launch site
Air Force Western Test Range (AFWTR)
Object type
Payload
Rocket body
Debris
Shape & HBR
Unknown shape, 0.1 m
Radar Cross Section
Medium (>0.1 m² and <1 m²)

Expand to show TLE details & history
Last TLE update: 15 hours ago

TLE from 15 hours ago
0 THORAD AGENA D DEB
1 06766U 70025NH  26255.69185156  .00000937  00000-0  55330-3 0  9998
2 06766 100.1588 313.1351 0075640 213.3966 146.2417 14.09439348847828
Epoch: 2026-09-12T16:36Z
TLE epoch observation values (Epoch: 2026-09-12T16:36:15.974Z)
Latitude
0.00002°
Longitude
72.37133°
Altitude
909.803 km
Speed
7.374 km/s
True Right ascension
20h 52m 32s
True Declination
0° 00' 00"
Sunlit
Object was in full shadow at epoch
Visualization orbit readout
Latitude
Unknown
Longitude
Unknown
Altitude
Unknown
Speed
Unknown
Apparent Right ascension
Unknown
Apparent Declination
Unknown
Sunlit
N/A
Visualization observer readout
Local Sidereal Time
23:50:24
Azimuth
Unknown
Elevation
Unknown
Doppler factor
Unknown
Orbital elements
Apogee altitude
913.276 km
Perigee altitude
803.8 km
Semi-major axis
7,236.675 km
Eccentricity
0.00756
Inclination
100.1588°
RAAN
313.1351°
Arg. of periapsis
213.3966°
True anomaly
146.71959°
Mean anomaly
146.2417°
Eccentric anomaly
146.48102°
Mean motion
3.52561 °/min
Orbital period
102.11 mins
BSTAR
0.0005533
Loading maneuver chart data...
Computing Atmospheric mass density...

Documentation

Showing up to 5 results
|